Prescott, AZ

4:38 AM MST on August 25, 2016 (GMT -0700)
Love

Weather History for KPRC - September, 2012

Change the Weather History Date:

Saturday, September 22, 2012

  Actual Average Record
Temperature  
Mean Temperature 72 °F 66 °F  
Max Temperature 86 °F 80 °F 92 °F (1989)
Min Temperature 57 °F 51 °F 36 °F (1988)
Degree Days  
Heating Degree Days 0    
Month to date heating degree days  
Since 1 July heating degree days  
Cooling Degree Days 6    
Month to date cooling degree days  
Year to date cooling degree days  
Growing Degree Days 22 (Base 50)    
Moisture  
Dew Point 38 °F    
Average Humidity 35    
Maximum Humidity 49    
Minimum Humidity 16    
Precipitation  
Precipitation 0.00 in 0.05 in 1.18 in (2007)
Month to date precipitation 1.17  
Year to date precipitation 10.83  
Sea Level Pressure  
Sea Level Pressure 29.98 in    
Wind  
Wind Speed 4 mph (SSW)    
Max Wind Speed 10 mph    
Max Gust Speed 21 mph    
Visibility 10 miles    
Events      
T = Trace of Precipitation, MM = Missing Value Source: NWS Daily Summary

Daily Weather History Graph

Daily Weather History Graph

Search for Another Location

Airport or City:

Trip Planner

Search our weather history database for the weather conditions in past years. The results will help you decide how hot, cold, wet, or windy it might be!

Date:

Astronomy

Sep. 22, 2012 Rise Set
Actual Time 6:18 AM MST 6:25 PM MST
Civil Twilight 5:52 AM MST 6:50 PM MST
Nautical Twilight 5:23 AM MST 7:20 PM MST
Astronomical Twilight 4:53 AM MST 7:49 PM MST
Moon 1:24 PM MST (9/22) 11:48 PM MST (9/22)
Length of Visible Light 12h 57m
Length of Day
12h 07m
Waxing Crescent, 50% of the Moon is Illuminated
Sep 22
Waxing Crescent
Sep 22
First Quarter
Sep 29
Full
Oct 8
Last Quarter
Oct 15
New

Hourly Weather History & Observations

Time (MST) Temp. Dew Point Humidity Pressure Visibility Wind Dir Wind Speed Gust Speed Precip Events Conditions
12:53 AM 61.0 °F 39.0 °F 44% 29.92 in 10.0 mi SW 4.6 mph - N/A   Clear
1:53 AM 57.9 °F 39.0 °F 49% 29.94 in 10.0 mi SSW 3.5 mph - N/A   Partly Cloudy
2:53 AM 57.9 °F 39.0 °F 49% 29.91 in 10.0 mi Calm Calm - N/A   Clear
3:53 AM 57.0 °F 37.9 °F 49% 29.94 in 10.0 mi South 4.6 mph - N/A   Clear
4:53 AM 57.9 °F 36.0 °F 44% 29.95 in 10.0 mi SSW 4.6 mph - N/A   Clear
5:53 AM 57.2 °F 37.4 °F 48% 30.19 in 10.0 mi SW 4.6 mph - N/A   Clear
6:53 AM 57.0 °F 37.0 °F 47% 30.01 in 10.0 mi Calm Calm - N/A   Clear
7:53 AM 63.0 °F 39.0 °F 41% 30.02 in 10.0 mi Calm Calm - N/A   Scattered Clouds
8:53 AM 69.1 °F 37.9 °F 32% 30.02 in 10.0 mi Calm Calm - N/A   Scattered Clouds
9:53 AM 77.0 °F 37.9 °F 24% 30.00 in 10.0 mi Calm Calm - N/A   Scattered Clouds
10:53 AM 82.0 °F 36.0 °F 19% 29.98 in 10.0 mi North 3.5 mph - N/A   Clear
11:53 AM 82.9 °F 34.0 °F 17% 29.99 in 10.0 mi NNE 4.6 mph - N/A   Scattered Clouds
12:53 PM 84.0 °F 35.1 °F 17% 29.97 in 10.0 mi Calm Calm - N/A   Mostly Cloudy
1:53 PM 86.0 °F 34.0 °F 16% 29.95 in 10.0 mi ESE 5.8 mph - N/A   Mostly Cloudy
2:53 PM 82.9 °F 34.0 °F 17% 29.94 in 10.0 mi West 3.5 mph 17.3 mph N/A   Mostly Cloudy
3:53 PM 82.0 °F 36.0 °F 19% 29.95 in 10.0 mi WSW 10.4 mph 20.7 mph N/A   Scattered Clouds
4:53 PM 82.0 °F 36.0 °F 19% 29.94 in 10.0 mi West 4.6 mph - N/A   Scattered Clouds
5:53 PM 78.1 °F 41.0 °F 27% 29.95 in 10.0 mi Calm Calm - N/A   Scattered Clouds
6:53 PM 71.1 °F 43.0 °F 36% 29.98 in 10.0 mi South 4.6 mph - N/A   Clear
7:53 PM 71.1 °F 42.1 °F 35% 29.98 in 10.0 mi South 6.9 mph - N/A   Clear
8:53 PM 64.9 °F 44.1 °F 47% 29.99 in 10.0 mi South 6.9 mph - N/A   Clear
9:53 PM 64.0 °F 43.0 °F 46% 29.97 in 10.0 mi SSW 5.8 mph - N/A   Clear
10:53 PM 62.1 °F 41.0 °F 46% 29.96 in 10.0 mi South 5.8 mph - N/A   Clear
11:53 PM 62.1 °F 41.0 °F 46% 29.95 in 10.0 mi South 10.4 mph - N/A   Clear